[[{"header":{"parameterUnit":"m.s-1","parameterCategory":1,"la1":30.2991,"la2":30.254,"lo1":-89.0895,"lo2":-89.0444,"dy":0.0017,"dx":0.0017,"nx":28,"ny":28,"refTime":"2024-04-04T03:00:00:Z","depth":0,"parameterNumber":2,"parameterNumberName":"U-component_of_WINDS"},"data":[0,0,0,0,0,0,0,0,0,0,0,0,0,0,0,0,0,0,0,0,0,0,0,0,0,0,0,0,0,0,0,0,0,0,0,0,0,0,0,0,0,0,0,0,0,0,0,0,0,0,0,0,0,0,0,0,0,0,5.1478,5.1479,0,5.1647,5.1649,5.1651,5.1582,5.1578,5.1574,5.157,5.1749,5.1757,5.1766,0,0,0,0,0,0,0,0,0,0,0,0,0,5.1099,5.1106,5.1477,5.148,5.1482,5.1647,5.1649,5.1652,5.1582,5.1577,5.1572,5.1568,5.1746,5.1756,5.1766,0,0,0,0,0,0,0,0,0,0,0,0,0,5.1266,5.1108,5.1477,5.1467,5.1468,5.1646,5.1649,5.1652,5.1583,5.1577,5.1571,5.1566,5.1743,5.1755,5.1768,5.1968,0,0,5.1807,5.1813,0,0,0,0,0,0,0,0,5.1256,5.128,5.1466,5.1468,5.1469,5.1587,5.1581,5.1758,5.1585,5.154,5.157,5.1563,5.17,5.1716,5.1762,5.1977,5.1984,5.1808,5.1816,5.1821,5.1825,0,0,0,0,0,0,0,5.1245,5.1272,5.1545,5.1469,5.1471,5.1456,5.1473,5.1615,5.1652,5.1543,5.1538,5.1559,5.17,5.1749,5.1765,5.1987,5.1808,5.1819,5.1827,5.1832,5.2378,5.2384,0,0,0,0,0,0,5.1232,5.1263,5.1539,5.155,5.1345,5.1467,5.1486,5.1555,5.165,5.1659,5.1564,5.1555,5.173,5.175,5.1771,5.2014,5.1821,5.1833,5.1841,5.2371,5.2379,5.2387,0,0,0,0,0,0,5.1224,5.1257,5.1532,5.1405,5.1439,5.148,5.1558,5.1562,5.1611,5.1666,5.1673,5.1608,5.1726,5.1753,5.192,5.2019,5.1839,5.1851,5.2363,5.2374,5.2383,5.2501,0,0,0,0,0,0,5.1214,5.1255,5.133,5.1407,5.1446,5.1677,5.1564,5.157,5.1633,5.1623,5.1709,5.1717,5.1724,5.1901,5.1933,5.2034,5.1861,5.2354,5.2368,5.238,5.2488,5.2514,5.2535,0,0,0,0,0,5.12,5.1357,5.1334,5.1368,5.1541,5.1683,5.1705,5.1708,5.1641,5.1718,5.1754,5.1714,5.2003,5.1919,5.1954,5.206,5.2348,5.2364,5.2379,5.2477,5.2509,5.2535,0,0,0,0,0,0,5.1293,5.1367,5.1343,5.1529,5.16,5.1671,5.1768,5.1741,5.1834,5.1821,5.1822,5.1842,5.2015,5.2054,5.1959,5.226,5.2166,5.2189,5.2229,5.2259,5.2282,5.227,5.1871,0,0,0,0,0,5.1334,5.1442,5.1502,5.166,5.1697,5.1727,5.1789,5.1785,5.1859,5.1889,5.1937,5.2012,5.212,5.2191,5.2293,5.2493,5.2512,5.2583,5.2607,5.2626,5.2647,5.2757,5.279,5.2437,5.2437,5.2437,0,0,5.1422,5.1476,5.1544,5.168,5.1735,5.1848,5.1753,5.1876,5.1961,5.1909,5.2069,5.2107,5.2191,5.2376,5.246,5.2414,5.2748,5.2645,5.266,5.2671,5.2777,5.281,5.284,5.2448,5.2446,5.2444,0,0,5.1641,5.1691,5.183,5.1886,5.197,5.1988,5.2022,5.2097,5.212,5.2281,5.2244,5.2346,5.2531,5.2593,5.2649,5.2892,5.286,5.2925,5.305,5.3158,5.3186,5.321,5.3299,5.3331,5.2945,5.2945,5.2946,0,5.174,5.1908,5.1905,5.2032,5.2094,5.205,5.2192,5.2247,5.2361,5.2406,5.2352,5.2584,5.2638,5.2837,5.2897,5.2942,5.2983,5.2916,5.3181,5.3206,5.3229,5.3314,5.3347,5.2953,5.2952,5.2951,5.2951,0,5.2027,5.2144,5.2246,5.2355,5.2429,5.2563,5.2582,5.2657,5.2647,5.2672,5.2837,5.29,5.3015,5.3061,5.3053,5.3261,5.323,5.3179,5.3084,5.327,5.3351,5.3383,5.2964,5.2961,5.2959,5.2957,0,0,5.231,5.2415,5.2453,5.2503,5.2592,5.2683,5.2816,5.2927,5.2992,5.3072,5.3185,5.3343,5.3296,5.336,5.3358,5.3453,5.3644,5.339,5.3392,5.3437,5.388,5.3919,5.3957,5.3623,5.3629,5.3634,5.3874,0,5.2537,5.2767,5.2769,5.2983,5.3092,5.3052,5.3168,5.3237,5.3264,5.3362,5.3393,5.3505,5.3434,5.3473,5.3564,5.3601,5.3733,5.3584,5.3731,5.3736,5.3713,5.3998,5.404,5.4263,5.3905,5.391,5.3914,0,5.2833,5.2921,5.3145,5.3219,5.3265,5.3369,5.3472,5.3565,5.3643,5.3656,5.3728,5.3712,5.3849,5.3749,5.394,5.3838,5.3898,5.3926,5.3935,5.395,5.3838,5.4024,5.4334,5.4369,5.3962,5.3958,5.3955,0,5.3019,5.3194,5.3351,5.3395,5.3485,5.3559,5.3601,5.3672,5.3739,5.3829,5.3873,5.3978,5.4037,5.412,5.4134,5.4059,5.4327,5.4227,5.4344,5.4344,5.4404,5.44,5.4731,5.4439,5.4438,5.4438,5.4437,0,5.3274,5.3414,5.3436,5.3534,5.3689,5.369,5.3845,5.3881,5.3945,5.405,5.4021,5.4121,5.4132,5.4235,5.4247,5.4405,5.4431,5.4448,5.445,5.4452,5.445,5.4493,5.4479,5.4447,5.4445,5.4443,5.4441,0,5.351,5.353,5.3699,5.377,5.3792,5.3904,5.3965,5.4059,5.4083,5.4216,5.4248,5.4286,5.4406,5.4428,5.457,5.4578,5.4767,5.4752,5.4741,5.474,5.4857,5.4847,5.5228,5.528,5.4952,5.4955,5.4958,0,5.3672,5.3778,5.3861,5.3928,5.3973,5.4082,5.4149,5.4155,5.4228,5.4324,5.4407,5.4524,5.4618,5.4813,5.4855,5.4964,5.4953,5.5079,5.4969,5.4968,5.4958,5.4952,5.4964,5.5101,5.5104,5.5107,5.511,0,5.3959,5.3964,5.4062,5.4165,5.4246,5.4327,5.4404,5.4462,5.4478,5.4561,5.4683,5.4756,5.49,5.5018,5.5126,5.5171,5.5145,5.5143,5.5177,5.5181,5.5171,5.5181,5.4801,5.5135,5.5133,5.5131,5.5129,5.5128,5.4165,5.4258,5.4331,5.4442,5.45,5.4572,5.4664,5.4699,5.48,5.4918,5.4915,5.5049,5.5126,5.5269,5.532,5.5427,5.5387,5.5435,5.5447,5.546,5.5472,5.5152,5.5447,5.5446,5.5445,5.5445,5.5444,0,5.4453,5.4497,5.4599,5.4707,5.4795,5.4759,5.4843,5.4919,5.5037,5.511,5.5202,5.5344,5.5457,5.5508,5.5621,5.5697,5.5688,5.5727,5.5722,5.5734,5.55,5.5461,5.5732,5.5732,5.5732,5.5732,5.5732,5.5732,5.4613,5.4769,5.4783,5.4969,5.5012,5.5143,5.5194,5.5262,5.5319,5.5478,5.5572,5.5603,5.5668,5.5785,5.5889,5.5901,5.5945,5.599,5.5997,5.5779,5.575,5.5722,5.5685,5.5999,5.5999,5.6222,5.6224,5.6225]},{"header":{"parameterUnit":"m.s-1","parameterCategory":1,"la1":30.2991,"la2":30.254,"lo1":-89.0895,"lo2":-89.0444,"dy":0.0017,"dx":0.0017,"nx":28,"ny":28,"refTime":"2024-04-04T03:00:00:Z","depth":0,"parameterNumber":3,"parameterNumberName":"V-component_of_WINDS"},"data":[0,0,0,0,0,0,0,0,0,0,0,0,0,0,0,0,0,0,0,0,0,0,0,0,0,0,0,0,0,0,0,0,0,0,0,0,0,0,0,0,0,0,0,0,0,0,0,0,0,0,0,0,0,0,0,0,0,0,-0.8679,-0.868,0,-0.8762,-0.8763,-0.8764,-0.8814,-0.8814,-0.8814,-0.8814,-0.8901,-0.8903,-0.8906,0,0,0,0,0,0,0,0,0,0,0,0,0,-0.8565,-0.8567,-0.8679,-0.868,-0.8681,-0.8762,-0.8763,-0.8764,-0.8814,-0.8814,-0.8814,-0.8814,-0.8901,-0.8903,-0.8906,0,0,0,0,0,0,0,0,0,0,0,0,0,-0.8628,-0.8568,-0.8678,-0.8715,-0.8719,-0.8761,-0.8763,-0.8764,-0.8814,-0.8814,-0.8814,-0.8815,-0.89,-0.8903,-0.8906,-0.8919,0,0,-0.8916,-0.8917,0,0,0,0,0,0,0,0,-0.8625,-0.8632,-0.8709,-0.8713,-0.8717,-0.8778,-0.8755,-0.8816,-0.8814,-0.8778,-0.8814,-0.8815,-0.886,-0.8867,-0.8881,-0.8923,-0.8926,-0.8916,-0.8918,-0.8919,-0.892,0,0,0,0,0,0,0,-0.862,-0.8629,-0.8712,-0.871,-0.8715,-0.8728,-0.8738,-0.8767,-0.8816,-0.8781,-0.8785,-0.8794,-0.8863,-0.8878,-0.8884,-0.8928,-0.8916,-0.8919,-0.8921,-0.8922,-0.8985,-0.8985,0,0,0,0,0,0,-0.861,-0.8625,-0.8709,-0.8714,-0.8671,-0.873,-0.8741,-0.8758,-0.8816,-0.8825,-0.8793,-0.8796,-0.8873,-0.888,-0.8887,-0.8906,-0.8919,-0.8922,-0.8924,-0.8985,-0.8985,-0.8985,0,0,0,0,0,0,-0.8607,-0.8617,-0.8706,-0.8671,-0.8683,-0.8732,-0.8751,-0.8759,-0.8775,-0.8825,-0.8835,-0.88,-0.8873,-0.8883,-0.8911,-0.891,-0.8924,-0.8926,-0.8985,-0.8985,-0.8985,-0.8944,0,0,0,0,0,0,-0.8604,-0.8615,-0.862,-0.867,-0.8685,-0.8727,-0.8751,-0.8761,-0.878,-0.8784,-0.8834,-0.8843,-0.8874,-0.8906,-0.8914,-0.8915,-0.8929,-0.8986,-0.8985,-0.8985,-0.8946,-0.8943,-0.894,0,0,0,0,0,-0.8599,-0.8605,-0.862,-0.863,-0.8691,-0.8727,-0.8735,-0.877,-0.878,-0.8786,-0.8818,-0.8841,-0.8909,-0.8908,-0.8918,-0.8919,-0.8986,-0.8985,-0.8985,-0.8947,-0.8943,-0.894,0,0,0,0,0,0,-0.8554,-0.8613,-0.8629,-0.8652,-0.8684,-0.8735,-0.8743,-0.8765,-0.8795,-0.8798,-0.8841,-0.8852,-0.8876,-0.8901,-0.8899,-0.8935,-0.895,-0.8951,-0.8918,-0.8915,-0.8912,-0.8906,-0.8932,0,0,0,0,0,-0.8547,-0.857,-0.862,-0.8635,-0.865,-0.8694,-0.871,-0.8735,-0.877,-0.8784,-0.8818,-0.8852,-0.8881,-0.8899,-0.8929,-0.895,-0.8962,-0.8956,-0.8953,-0.895,-0.8951,-0.8965,-0.8963,-0.8983,-0.8983,-0.8983,0,0,-0.8532,-0.8567,-0.8579,-0.8627,-0.8655,-0.8678,-0.8705,-0.8728,-0.8747,-0.8788,-0.8816,-0.8843,-0.8884,-0.8908,-0.8921,-0.893,-0.8948,-0.895,-0.8947,-0.895,-0.8964,-0.8963,-0.8961,-0.8983,-0.8983,-0.8983,0,0,-0.8517,-0.8545,-0.8561,-0.8588,-0.863,-0.8659,-0.8663,-0.8711,-0.873,-0.8759,-0.879,-0.8813,-0.8862,-0.889,-0.8911,-0.8907,-0.893,-0.8915,-0.89,-0.8913,-0.8912,-0.891,-0.891,-0.8909,-0.8916,-0.8916,-0.8916,0,-0.8493,-0.853,-0.8567,-0.8589,-0.861,-0.8648,-0.8665,-0.869,-0.8739,-0.8753,-0.8761,-0.8824,-0.8854,-0.8886,-0.8886,-0.8901,-0.8907,-0.891,-0.8909,-0.8908,-0.8907,-0.8908,-0.8907,-0.8914,-0.8914,-0.8914,-0.8915,0,-0.8499,-0.8524,-0.8532,-0.8578,-0.86,-0.8619,-0.866,-0.8678,-0.8701,-0.8729,-0.8759,-0.8796,-0.8835,-0.8844,-0.8867,-0.888,-0.8884,-0.89,-0.8916,-0.8903,-0.8904,-0.8904,-0.8911,-0.8912,-0.8912,-0.8913,0,0,-0.8458,-0.8525,-0.8527,-0.8549,-0.8598,-0.8618,-0.864,-0.8676,-0.8691,-0.8724,-0.8744,-0.8785,-0.88,-0.8823,-0.885,-0.8861,-0.8857,-0.8876,-0.8878,-0.8872,-0.8875,-0.8863,-0.8863,-0.8873,-0.8873,-0.8873,-0.8872,0,-0.8451,-0.8491,-0.8525,-0.8553,-0.8577,-0.8614,-0.8633,-0.8665,-0.8693,-0.8718,-0.8748,-0.8777,-0.8794,-0.8809,-0.8822,-0.8855,-0.8859,-0.8855,-0.8893,-0.8894,-0.8882,-0.8863,-0.885,-0.8848,-0.8873,-0.8873,-0.8873,0,-0.8448,-0.8479,-0.8509,-0.8556,-0.8567,-0.8583,-0.862,-0.8644,-0.8682,-0.8701,-0.8727,-0.8755,-0.8781,-0.8793,-0.883,-0.8827,-0.8845,-0.8863,-0.8864,-0.8869,-0.8883,-0.8868,-0.8848,-0.8847,-0.8874,-0.8874,-0.8874,0,-0.8416,-0.8465,-0.8489,-0.8507,-0.8562,-0.8573,-0.8597,-0.8635,-0.8655,-0.8688,-0.8702,-0.8737,-0.8756,-0.8783,-0.882,-0.8826,-0.8854,-0.8869,-0.8871,-0.887,-0.8876,-0.8875,-0.8858,-0.8886,-0.8886,-0.8886,-0.8886,0,-0.8404,-0.8421,-0.8476,-0.8491,-0.8511,-0.8551,-0.8571,-0.8598,-0.8632,-0.8654,-0.8688,-0.8708,-0.8755,-0.8781,-0.881,-0.8837,-0.8845,-0.8862,-0.887,-0.886,-0.8857,-0.8872,-0.8873,-0.8886,-0.8886,-0.8886,-0.8886,0,-0.8372,-0.8409,-0.8438,-0.8488,-0.8501,-0.8514,-0.8558,-0.8574,-0.8603,-0.8631,-0.864,-0.8686,-0.8718,-0.8758,-0.8803,-0.8823,-0.8847,-0.8858,-0.8834,-0.8838,-0.8838,-0.8838,-0.883,-0.8832,-0.8857,-0.8857,-0.8857,0,-0.8363,-0.8377,-0.8428,-0.8445,-0.8467,-0.8494,-0.8514,-0.8554,-0.8575,-0.862,-0.8631,-0.8666,-0.8696,-0.8747,-0.8785,-0.882,-0.8833,-0.8828,-0.8838,-0.8828,-0.8834,-0.8833,-0.8835,-0.8825,-0.8824,-0.8824,-0.8824,0,-0.8342,-0.836,-0.8388,-0.8423,-0.8446,-0.8476,-0.8507,-0.8519,-0.8565,-0.8587,-0.862,-0.8643,-0.8689,-0.8724,-0.8764,-0.879,-0.8815,-0.882,-0.8823,-0.8812,-0.8798,-0.8807,-0.8827,-0.882,-0.882,-0.8821,-0.8821,-0.8821,-0.8322,-0.8336,-0.8375,-0.8405,-0.8432,-0.8461,-0.8479,-0.851,-0.8539,-0.8579,-0.8601,-0.8634,-0.8673,-0.873,-0.8754,-0.8782,-0.879,-0.8794,-0.8795,-0.8795,-0.8792,-0.8793,-0.8789,-0.8789,-0.8789,-0.8789,-0.879,0,-0.8304,-0.833,-0.8358,-0.84,-0.8424,-0.8445,-0.848,-0.85,-0.8528,-0.8562,-0.859,-0.8629,-0.8663,-0.8704,-0.8741,-0.8755,-0.8768,-0.8764,-0.8763,-0.8769,-0.8782,-0.8776,-0.8753,-0.8753,-0.8753,-0.8753,-0.8753,-0.8753,-0.8297,-0.8323,-0.8345,-0.8385,-0.8412,-0.8444,-0.8463,-0.849,-0.8517,-0.8558,-0.8587,-0.8613,-0.865,-0.869,-0.8723,-0.8734,-0.8746,-0.8739,-0.8754,-0.8765,-0.8768,-0.8771,-0.8766,-0.8741,-0.8741,-0.8739,-0.8739,-0.8739]}]]